DW1375 Weather Reports


time (UTC)temp
F
wind
direction
speed
knots
gust
knots
rain 1hr
in
rain 24hr
in
rain mn
in
humidity
%
barometer
mb
20260510190059 79 137 0.9 3.5 0.00 0.01 0.01 64 1017.5
20260510184546 79 317 1.7 4.3 0.00 0.01 0.01 63 1017.7
20260510183044 79 289 0.0 3.5 0.00 0.01 0.01 69 1017.8
20260510181555 78 59 1.7 3.5 0.00 0.01 0.01 68 1018.1
20260510180044 78 105 0.9 3.5 0.00 0.01 0.01 71 1018.1
20260510174547 77 99 0.9 3.5 0.00 0.01 0.01 72 1018.3
20260510173040 76 137 0.9 2.6 0.00 0.01 0.01 75 1018.4
20260510171555 77 67 0.0 2.6 0.00 0.01 0.01 76 1018.5
20260510170044 74 3 0.9 2.6 0.00 0.01 0.01 80 1018.6
20260510164533 73 50 1.7 6.1 0.00 0.01 0.01 81 1018.8
20260510163038 73 45 0.9 3.5 0.00 0.01 0.01 81 1018.9
20260510161527 71 74 0.0 2.6 0.00 0.01 0.01 85 1019.0
20260510160031 70 54 2.6 3.5 0.00 0.01 0.01 86 1019.1
20260510154521 70 3 0.9 3.5 0.00 0.01 0.01 88 1019.1
20260510153030 69 3 0.9 1.7 0.00 0.01 0.01 90 1019.1
20260510151520 69 3 0.9 2.6 0.00 0.01 0.01 91 1019.0
20260510150016 68 3 0.0 1.7 0.00 0.01 0.01 93 1019.0
20260510144513 67 3 0.9 1.7 0.00 0.01 0.01 94 1019.0
20260510143012 66 3 0.0 0.9 0.00 0.01 0.01 94 1019.0
20260510141507 66 3 0.0 1.7 0.00 0.01 0.01 94 1019.0
20260510140007 66 3 0.0 2.6 0.00 0.01 0.01 95 1018.9
20260510134505 66 3 0.0 1.7 0.00 0.01 0.01 94 1018.9
20260510133103 65 3 0.0 1.7 0.00 0.01 0.01 94 1018.6
20260510131600 65 3 0.0 0.9 0.00 0.01 0.01 94 1018.7
20260510130057 64 3 0.0 1.7 0.00 0.01 0.01 94 1018.7
20260510124601 64 3 0.0 0.9 0.01 0.01 0.01 94 1018.6
20260510123053 63 3 0.0 0.9 0.01 0.01 0.01 94 1018.3
20260510121548 62 3 0.0 0.0 0.01 0.01 0.01 94 1018.2
20260510120045 62 3 0.0 0.9 0.01 0.01 0.01 94 1017.7
20260510114546 61 3 0.0 0.0 0.00 0.00 0.00 94 1017.8
20260510113041 61 3 0.0 0.0 0.00 0.00 0.00 94 1017.4
20260510111534 61 3 0.0 0.0 0.00 0.00 0.00 94 1017.2
20260510110046 61 3 0.0 0.0 0.00 0.00 0.00 94 1017.0
20260510104532 61 3 0.0 0.0 0.00 0.00 0.00 94 1016.5
20260510103031 61 3 0.0 0.0 0.00 0.00 0.00 94 1016.2
20260510101527 61 3 0.0 0.0 0.00 0.00 0.00 94 1016.1
20260510100034 61 3 0.0 0.0 0.00 0.00 0.00 94 1015.8
20260510094535 61 3 0.0 0.0 0.00 0.00 0.00 94 1015.6
20260510093026 61 3 0.0 0.0 0.00 0.00 0.00 94 1015.3
20260510091526 61 3 0.0 0.0 0.00 0.00 0.00 94 1015.2
20260510090022 61 3 0.0 0.0 0.00 0.00 0.00 94 1015.0
20260510084522 61 3 0.0 0.0 0.00 0.00 0.00 94 1015.0
20260510083020 61 3 0.0 0.0 0.00 0.00 0.00 94 1014.7
20260510081529 61 3 0.0 0.0 0.00 0.00 0.00 94 1014.6
20260510080039 61 3 0.0 0.0 0.00 0.00 0.00 94 1014.7
20260510074520 61 3 0.0 0.0 0.00 0.00 0.00 93 1014.7
20260510073033 61 3 0.0 0.0 0.00 0.00 0.00 94 1014.5
20260510071519 62 3 0.0 0.0 0.00 0.00 0.00 93 1014.6
20260510070016 62 3 0.0 0.0 0.00 0.00 0.00 94 1014.6
20260510064547 62 3 0.0 0.0 0.00 0.00 0.00 93 1014.7
20260510063041 62 3 0.0 0.0 0.00 0.00 0.00 94 1014.9
20260510061540 63 3 0.0 0.0 0.00 0.00 0.00 94 1014.9
20260510060045 63 3 0.0 0.0 0.00 0.00 0.00 93 1015.0
20260510054538 63 3 0.0 0.0 0.00 0.00 0.00 94 1015.1
20260510053036 63 3 0.0 0.0 0.00 0.00 0.00 93 1015.1
20260510051533 64 3 0.0 0.0 0.00 0.00 0.00 93 1015.1
20260510050037 64 3 0.0 0.0 0.00 0.00 0.00 93 1015.3
20260510044532 64 3 0.0 0.0 0.00 0.00 0.00 93 1015.3
20260510043030 64 3 0.0 0.0 0.00 0.00 0.00 93 1015.4
20260510041529 65 3 0.0 0.0 0.00 0.00 0.00 93 1015.2
20260510040031 65 3 0.0 0.0 0.00 0.00 0.00 93 1015.4
20260510034529 65 3 0.0 0.0 0.00 0.00 0.00 93 1015.6
20260510033032 65 3 0.0 0.0 0.00 0.00 0.00 93 1015.8
20260510031530 65 3 0.0 0.0 0.00 0.00 0.00 93 1015.7
20260510030027 66 3 0.0 0.0 0.00 0.00 0.00 93 1015.7
20260510024525 66 3 0.0 0.0 0.00 0.00 0.00 92 1015.5
20260510023023 67 3 0.0 0.0 0.00 0.00 0.00 92 1015.0
20260510021553 67 3 0.0 0.0 0.00 0.00 0.00 92 1014.9
20260510020021 68 3 0.0 0.0 0.00 0.00 0.00 92 1014.8
20260510014531 68 3 0.0 0.0 0.00 0.00 0.00 91 1014.6
20260510013019 68 3 0.0 0.0 0.00 0.00 0.00 90 1014.4
20260510011519 69 3 0.0 0.0 0.00 0.00 0.00 90 1014.2
20260510010032 69 3 0.0 0.0 0.00 0.00 0.00 90 1013.9
20260510004520 70 3 0.0 0.0 0.00 0.00 0.00 89 1013.4
20260510003022 70 3 0.0 0.9 0.00 0.00 0.00 89 1013.2
20260510001516 70 3 0.0 1.7 0.00 0.00 0.00 89 1013.1
20260510000016 71 3 0.0 1.7 0.00 0.00 0.00 88 1013.1
20260509234518 71 3 0.0 0.9 0.00 0.00 0.00 87 1013.0
20260509233014 72 3 0.9 1.7 0.00 0.00 0.00 86 1013.0
20260509231514 72 3 0.0 1.7 0.00 0.00 0.00 84 1012.6
20260509230050 72 3 0.0 0.9 0.00 0.00 0.00 84 1012.8
20260509224545 73 3 0.0 0.0 0.00 0.00 0.00 84 1012.6
20260509223047 74 3 0.0 0.0 0.00 0.00 0.00 80 1012.5
20260509221544 75 3 0.0 0.9 0.00 0.00 0.00 79 1012.4
20260509220048 75 3 0.0 0.9 0.00 0.00 0.00 77 1012.3
20260509214546 75 3 0.0 0.9 0.00 0.00 0.00 73 1012.1
20260509213048 76 3 0.0 0.9 0.00 0.00 0.00 72 1012.1
20260509211541 75 20 0.0 0.9 0.00 0.00 0.00 76 1011.8
20260509210046 76 3 0.0 0.9 0.00 0.00 0.00 71 1011.8
20260509204540 77 3 0.0 2.6 0.00 0.00 0.00 69 1011.7
20260509203037 77 8 0.0 2.6 0.00 0.00 0.00 70 1011.9
20260509201539 76 59 0.0 1.7 0.00 0.00 0.00 72 1012.2
20260509200039 78 59 0.0 0.9 0.00 0.00 0.00 70 1012.3
20260509194550 77 60 0.0 3.5 0.00 0.00 0.00 70 1012.2
20260509193035 76 329 0.9 3.5 0.00 0.00 0.00 70 1012.0
20260509191532 77 334 0.0 3.5 0.00 0.00 0.00 69 1012.4